This is the latest recevied weather packets stored in our database for station/object EA7URS-13. If no packets are shown the sender has not sent any weather packets the latest 10 day(s).
| Time | Temp. | Humidity | Pressure | Rain* | Wind** | Luminosity | Snow |
|---|---|---|---|---|---|---|---|
| 1788076321 | 23.33° C | 54% | 1010.9 hPa | 0 mm | - | 198 W/m² | - |
| 1788076020 | 23.33° C | 54% | 1010.9 hPa | 0 mm | - | 198 W/m² | - |
| 1788075719 | 22.78° C | 56% | 1010.9 hPa | 0 mm | - | 172 W/m² | - |
| 1788075418 | 22.78° C | 56% | 1010.9 hPa | 0 mm | - | 172 W/m² | - |
| 1788075117 | 22.22° C | 57% | 1010.7 hPa | 0 mm | - | 146 W/m² | - |
| 1788074816 | 22.22° C | 57% | 1010.7 hPa | 0 mm | - | 146 W/m² | - |
| 1788074515 | 21.67° C | 58% | 1010.8 hPa | 0 mm | - | 123 W/m² | - |
| 1788074213 | 21.67° C | 58% | 1010.8 hPa | 0 mm | - | 123 W/m² | - |
| 1788073912 | 21.67° C | 58% | 1010.4 hPa | 0 mm | - | 101 W/m² | - |
| 1788073611 | 21.67° C | 58% | 1010.4 hPa | 0 mm | - | 101 W/m² | - |
| 1788073310 | 21.67° C | 57% | 1010.4 hPa | 0 mm | - | 81 W/m² | - |
| 1788073009 | 21.67° C | 57% | 1010.4 hPa | 0 mm | - | 81 W/m² | - |
| 1788072708 | 21.11° C | 60% | 1010.5 hPa | 0 mm | - | 63 W/m² | - |
| 1788072407 | 21.11° C | 60% | 1010.5 hPa | 0 mm | - | 63 W/m² | - |
| 1788072106 | 20.56° C | 61% | 1010.4 hPa | 0 mm | - | 47 W/m² | - |
| 1788071805 | 20.56° C | 61% | 1010.4 hPa | 0 mm | - | 47 W/m² | - |
| 1788071504 | 20.56° C | 61% | 1010 hPa | 0 mm | - | 32 W/m² | - |
| 1788071203 | 20.56° C | 61% | 1010 hPa | 0 mm | - | 32 W/m² | - |
| 1788070902 | 21.11° C | 59% | 1010.2 hPa | 0 mm | - | 20 W/m² | - |
| 1788070600 | 21.11° C | 59% | 1010.2 hPa | 0 mm | - | 20 W/m² | - |
| 1788070299 | 20.56° C | 60% | 1010.2 hPa | 0 mm | - | 11 W/m² | - |
| 1788069998 | 20.56° C | 60% | 1010.2 hPa | 0 mm | - | 11 W/m² | - |
| 1788069697 | 20° C | 62% | 1010.4 hPa | 0 mm | - | 5 W/m² | - |
| 1788069396 | 20° C | 62% | 1010.4 hPa | 0 mm | - | 5 W/m² | - |
| 1788069095 | 20° C | 62% | 1010.2 hPa | 0 mm | - | 1 W/m² | - |
* Rain latest hour (hover to see other rain measurements)
** Current wind speed in m/s (hover to see current wind gust speed)